Regional Weather Roundup
Issued by NWS

Home | Current Version | Previous Version | Text Only | Print | Product List | Glossary On
Versions: 1 2 3 4 5 6 7 8 9 10 11 12 13 14 15 16 17 18 19 20 21 22 23 24 25 26 27 28 29 30 31 32 33 34 35 36 37 38 39 40 41 42 43 44 45 46 47 48 49 50
000
ASUS43 KLMK 272310
RWRKY
KENTUCKY REGIONAL WEATHER ROUNDUP
NATIONAL WEATHER SERVICE LOUISVILLE KY
700 PM EDT WED JUL 27 2016

NOTE "FAIR" INDICATES FEW OR NO CLOUDS BELOW 12,000 FEET
WITH NO SIGNIFICANT WEATHER AND/OR OBSTRUCTIONS TO VISIBILITY.

KYZ001>023-026-027-061>063-070>075-280000-
WESTERN AND SOUTH CENTRAL KENTUCKY

CITY           SKY/WX    TMP DP  RH WIND       PRES   REMARKS
PADUCAH        LGT RAIN  80  76  87 VRB5      29.88F
HENDERSON      CLOUDY    82  73  74 CALM      29.92R THUNDER
OWENSBORO      PTSUNNY   87  77  72 NE9       29.90F HX  98
HOPKINSVILLE   MOSUNNY   85  75  70 VRB5      29.88F HX  94
BOWLING GREEN  MOSUNNY   84  74  71 NE10      29.91S HX  91
GLASGOW        CLOUDY    83  71  65 SW6       29.92S
$$

KYZ024-025-028>034-038-045-046-053-280000-
NORTH CENTRAL KENTUCKY

CITY           SKY/WX    TMP DP  RH WIND       PRES   REMARKS
LOUISVILLE/SDF TSTM      87  70  56 NE7       29.92F HX  92
LOUISVILLE/LOU TSTM      78  71  79 E15G21    29.95R
FORT KNOX      PTSUNNY   87  75  68 NE6       29.91F HX  96
$$

KYZ035>037-039>044-047>052-055>060-089>105-280000-
NORTHEAST KENTUCKY

CITY           SKY/WX    TMP DP  RH WIND       PRES   REMARKS
LEXINGTON      CLOUDY    87  73  62 CALM      29.96S HX  94
COVINGTON      PTSUNNY   86  71  60 SW5       29.95S HX  91
FRANKFORT      CLOUDY    87  73  62 NW5       29.93F HX  94
$$

KYZ054-064>069-076>088-106>120-280000-
SOUTHEAST KENTUCKY

CITY           SKY/WX    TMP DP  RH WIND       PRES   REMARKS
JACKSON        TSTM      76  72  87 N8G20     29.98R VSB 3/4
LONDON         CLOUDY    83  67  58 VRB7      29.97R
SOMERSET       CLOUDY    88  68  51 SW3       29.95S HX  91
MIDDLESBORO    CLOUDY    85  73  66 N6        29.97S HX  91
MONTICELLO     CLOUDY   N/A N/A N/A W9        29.96F
$$




USA.gov is the U.S. government's official web portal to all federal, state and local government web resources and services.